Weather History for Pensacola NAS, FL

Change the Weather History Date:

Sunday, June 30, 2013

  Actual Average Record
Temperature  
Mean Temperature 80 °F -  
Max Temperature 87 °F 85 °F 97 °F (2006)
Min Temperature 72 °F 71 °F 69 °F (2004)
Cooling Degree Days 14    
Growing Degree Days 30 (Base 50)    
Moisture  
Dew Point 72 °F    
Average Humidity 83    
Maximum Humidity 97    
Minimum Humidity 61    
Precipitation  
Precipitation 0.15 in - - ()
Sea Level Pressure  
Sea Level Pressure 29.74 in    
Wind  
Wind Speed 3 mph (West)    
Max Wind Speed 13 mph    
Max Gust Speed -    
Visibility 10 miles    
Events Thunderstorm    
Averages and records for this station are not official NWS values.
T = Trace of Precipitation, MM = Missing Value Source: NWS Daily Summary

Daily Weather History Graph

Daily Weather History Graph

Search for Another Location

Airport:

Trip Planner

Search our weather history database for the weather conditions in past years. The results will help you decide how hot, cold, wet, or windy it might be!

Date:

Astronomy

Jun. 30, 2013 Rise Set
Actual Time 5:50 AM CDT 7:55 PM CDT
Civil Twilight 5:23 AM CDT 8:22 PM CDT
Nautical Twilight 4:49 AM CDT 8:56 PM CDT
Astronomical Twilight 4:13 AM CDT 9:32 PM CDT
Moon 12:28 AM CDT (6/30) 1:27 PM CDT (6/30)
Length of Visible Light 14h 59m
Length of Day
14h 04m
Last Quarter, 45% of the Moon is Illuminated
Jun 30
Last Quarter
Jul 8
New
Jul 15
First Quarter
Jul 22
Full
Jul 29
Last Quarter

Hourly Weather History & Observations

Time (CDT) Temp. Heat Index Dew Point Humidity Pressure Visibility Wind Dir Wind Speed Gust Speed Precip Events Conditions
12:56 AM 75.9 °F - 70.0 °F 82% 29.75 in 10.0 mi NW 5.8 mph - N/A   Partly Cloudy
1:42 AM 73.4 °F - 69.8 °F 88% 29.73 in 10.0 mi Calm Calm - N/A Thunderstorm Thunderstorm
1:56 AM 73.9 °F - 70.0 °F 87% 29.73 in 10.0 mi Calm Calm - N/A   Clear
2:56 AM 73.0 °F - 70.0 °F 90% 29.71 in 10.0 mi Calm Calm - N/A   Clear
3:56 AM 72.0 °F - 71.1 °F 97% 29.71 in 10.0 mi Calm Calm - N/A   Clear
4:56 AM 72.0 °F - 70.0 °F 93% 29.72 in 10.0 mi Calm Calm - N/A   Partly Cloudy
5:56 AM 72.0 °F - 71.1 °F 97% 29.73 in 10.0 mi Calm Calm - N/A   Mostly Cloudy
6:56 AM 75.0 °F - 72.0 °F 90% 29.74 in 10.0 mi Calm Calm - N/A   Mostly Cloudy
7:56 AM 78.1 °F - 72.0 °F 81% 29.75 in 10.0 mi North 3.5 mph - N/A   Clear
8:56 AM 81.0 °F 85.2 °F 72.0 °F 74% 29.75 in 10.0 mi Calm Calm - N/A   Mostly Cloudy
9:41 AM 78.8 °F - 71.6 °F 78% 29.75 in 10.0 mi NNW 4.6 mph - N/A Thunderstorm Thunderstorm
9:56 AM 79.0 °F - 72.0 °F 79% 29.77 in 10.0 mi Calm Calm - N/A   Overcast
10:29 AM 78.8 °F - 73.4 °F 83% 29.76 in 10.0 mi SSW 4.6 mph - N/A Thunderstorm Thunderstorm
10:45 AM 78.8 °F - 71.6 °F 78% 29.76 in 10.0 mi South 5.8 mph - N/A   Overcast
10:56 AM 78.1 °F - 73.0 °F 84% 29.75 in 10.0 mi South 4.6 mph - N/A   Mostly Cloudy
11:56 AM 81.0 °F 85.2 °F 72.0 °F 74% 29.74 in 10.0 mi North 3.5 mph - N/A   Overcast
12:56 PM 84.9 °F 90.7 °F 72.0 °F 65% 29.73 in 10.0 mi Variable 4.6 mph - N/A   Overcast
1:56 PM 87.1 °F 93.6 °F 72.0 °F 61% 29.72 in 10.0 mi NNW 6.9 mph - N/A   Overcast
2:56 PM 84.0 °F 91.2 °F 73.9 °F 72% 29.73 in 10.0 mi SW 6.9 mph - N/A   Mostly Cloudy
3:56 PM 82.0 °F 87.9 °F 73.9 °F 76% 29.72 in 10.0 mi South 8.1 mph - N/A   Overcast
4:56 PM 81.0 °F 86.2 °F 73.9 °F 79% 29.73 in 10.0 mi SSW 12.7 mph - N/A   Overcast
5:56 PM 81.0 °F 86.2 °F 73.9 °F 79% 29.72 in 10.0 mi NE 4.6 mph - 0.15 in   Mostly Cloudy
6:56 PM 81.0 °F 85.8 °F 73.0 °F 77% 29.73 in 10.0 mi Calm Calm - 0.00 in   Mostly Cloudy
7:56 PM 78.1 °F - 75.0 °F 90% 29.75 in 10.0 mi East 4.6 mph - N/A   Mostly Cloudy
8:30 PM 77.0 °F - 73.4 °F 89% 29.74 in 10.0 mi East 4.6 mph - N/A   Mostly Cloudy
8:56 PM 77.0 °F - 73.0 °F 88% 29.75 in 10.0 mi Calm Calm - N/A   Clear
9:56 PM 75.0 °F - 73.0 °F 94% 29.77 in 10.0 mi Calm Calm - N/A   Clear
10:56 PM 73.9 °F - 73.0 °F 97% 29.78 in 9.0 mi Calm Calm - N/A   Clear
11:56 PM 73.9 °F - 73.0 °F 97% 29.78 in 10.0 mi Calm Calm - N/A   Scattered Clouds